Regional Weather Roundup
Issued by NWS Charleston, SC

Current Version | Previous Version | Graphics & Text | Print | Product List | Glossary On
Versions: 1 2 3 4 5 6 7 8 9 10 11 12 13 14 15 16 17 18 19 20 21 22 23 24 25 26 27 28 29 30 31 32 33 34 35 36 37 38 39 40 41 42 43 44 45 46 47 48 49 50
000
ASUS42 KCHS 221927
RWRCHS

REGIONAL WEATHER ROUNDUP
NATIONAL WEATHER SERVICE CHARLESTON SC
300 PM EDT FRI SEP 22 2017

NOTE: "FAIR" INDICATES FEW OR NO CLOUDS BELOW 12,000 FEET WITH NO
SIGNIFICANT WEATHER AND/OR OBSTRUCTIONS TO VISIBILITY.

NOT ALL STATIONS ARE QUALITY CONTROLLED. USE DATA WITH CAUTION...
ESPECIALLY DEWPOINT OBSERVATIONS.

SCZ027-030-031-034>040-042>050-222000-
...SOUTHEAST SOUTH CAROLINA...

CITY           SKY/WX    TMP DP  RH WIND       PRES   REMARKS
N CHARLESTON   MOSUNNY   87  69  54 NE9       29.99F HX  91
WATERFRONT PRK   N/A     82  75  79 SE7       29.85F
JOHNS ISLAND   FAIR      86  75  70 E8        30.00F HX  95
PINOPOLIS        N/A     81  73  78 VRB3      29.95F
MONCKS CORNER  FAIR      84  70  61 NE6       30.00F
SUMMERVILLE    FAIR      86  70  58 N5        30.01F HX  90
BEAUFORT MCAS  MOSUNNY   89  72  56 NE6       29.99F HX  96
BEAUFORT ARPT  FAIR      86  70  58 NE6       30.00F HX  90
HILTON HEAD IS MOSUNNY   84  75  74 E7        30.01F HX  92
WALTERBORO     PTCLDY    86  68  54 NE5       30.01F
ALLENDALE      NOT AVBL

...SOUTHERN MIDLANDS AND PEE DEE...

CITY           SKY/WX    TMP DP  RH WIND       PRES   REMARKS
GEORGETOWN     FAIR      84  66  54 E5        30.02F
KINGSTREE      FAIR      86  66  51 N3        30.01F
ORANGEBURG     MOSUNNY   88  67  49 E6        30.01F HX  91
BARNWELL       FAIR      90  72  55 E10       30.01F HX  96
AIKEN          MOCLDY    82  68  61 CALM      30.06S THUNDER
MANNING        FAIR      88  41  19 MISG      30.01F
COLUMBIA       PTSUNNY   89  66  46 SE6       30.00F HX  91
SUMTER         MOSUNNY   85  66  52 E5        30.00F
FLORENCE       MOSUNNY   87  66  49 E10       30.02F
MYRTLE BEACH   MOSUNNY   84  70  62 SE9       30.02F
N MYRTLE BEACH SUNNY     83  71  67 VRB7      30.01F

$$

GAZ063-065-086>088-099>101-113>116-118-119-134>141-150-222000-
...SOUTHEAST GEORGIA...

CITY           SKY/WX    TMP DP  RH WIND       PRES   REMARKS
SAVANNAH ARPT  MOSUNNY   88  69  53 CALM      29.99F HX  92
HUNTER AAF     SUNNY     87  72  60 E7        29.97F HX  93
FORT STEWART   SUNNY     88  68  52 E5        29.97F HX  91
STATESBORO     MOSUNNY   89  64  42 E6        30.00F HX  90
SYLVANIA       PTCLDY    89  72  57 E3        30.01F HX  95
CLAXTON        FAIR      90  67  45 E3        29.99F HX  93

...CSRA...CENTRAL AND FAR SOUTHEAST GEORGIA...

CITY           SKY/WX    TMP DP  RH WIND       PRES   REMARKS
THOMSON        MOSUNNY   87  68  52 NE6       30.05F HX  90
AUGUSTA-BUSH   LGT RAIN  82  70  66 NE13G18   30.03R
AUGUSTA-DANIEL TSTM      75  70  84 E10       30.04R
SWAINSBORO     FAIR      88  70  55 E3        30.00F HX  92
VIDALIA        SUNNY     90  70  51 E6        29.99F HX  95
EASTMAN        FAIR      91  52  26 SE6       30.02F
HAZLEHURST     FAIR      90  50  25 SE7       29.98F
ALMA           MOSUNNY   89  68  49 E7        29.98F HX  93
WAYCROSS       PTSUNNY   87  64  46 E9        29.98F
JESUP          NOT AVBL
BAXLEY         FAIR      88  66  48 E7        29.98F HX  90
BRUNSWICK      MOSUNNY   84  70  61 NE8G17    30.00F
SAINT SIMONS   MOSUNNY   86  74  67 NE14      29.99F HX  94

$$

SCZ027-028-034-036>038-045-046-048>050-GAZ119-141-222000-
...LAKE AND SUPPLEMENTAL COASTAL OBSERVATIONS...

STATION/POSITION TIME  TEMP    WIND        PRES    WAVE   SWELL
                       AIR SEA DIR/SP/G            HT/PER HT/PER/DIR
                 (UTC) (F)     (DEG/KT/KT) (MB)    (FT/S) (FT/S/D)
WINYAH BAY       NOT AVBL
LAKE MURRAY      1820   85     180/  4/  6 1015.9F
ACE BASIN NERRS  1745   87     110/  1     1016.0
FORT PULASKI     1848   80 80  100/ 12/ 13 1016.4F
SAPELO ISLAND    1800   84        CALM     1016.0

$$

ANZ835-935-AMZ111-154-330-350-352-354-370-450-454-472-222000-
...C-MAN AND BUOY OBSERVATIONS...

STATION/POSITION TIME  TEMP    WIND        PRES    WAVE   SWELL
                       AIR SEA DIR/SP/G            HT/PER HT/PER/DIR
                 (UTC) (F)     (DEG/KT/KT) (MB)    (FT/S) (FT/S/D)
BUOY 41004       1850   80 82   50/ 10/ 14 1015.6F   3/11   3/110/11
BUOY 41008       1850   80 81   60/ 12/ 14 1015.4F   3/11   2/ 90/11
FOLLY BEACH CMAN 1900   81      90/ 10/ 11 1016.6F
CAPERS NEARSHORE 1808   79 82   70/ 10/ 14 1016.3
FRIPP NEARSHORE  1808   80      60/  8/ 12 1023.7S


STATION/POSITION TIME  TEMP    WIND        PRES    WAVE   SWELL
                       AIR SEA DIR/SP/G            HT/PER HT/PER/DIR
                 (UTC) (F)     (DEG/KT/KT) (MB)    (FT/S) (FT/S/D)
5E ST. MARYS GA  1900      83                N/A     4/12   2/100/12
FRYING PAN BUOY  1900   81 83  100/ 10/ 14 1015.9
BUOY 41025       1850   77 79  230/  4/  6 1016.3F   6/11   7/ 80/11
CAPE LOOKOUT NC  1900   82     170/  6/  7 1016.0F
BUOY 41002       1850   79 81   60/  6/  6 1015.4F   6/11   7/120/11
BUOY 41010       1850           70/ 17/ 21 1013.7F   8/14   7/14
ST AUGUSTINE FL  1900   80 84   60/ 16/ 17 1014.6F


$$



USA.gov is the U.S. government's official web portal to all federal, state and local government web resources and services.